Temp
65 66 64 64 63 62 62 64 66 66 64 65 65 66 67 68 68 68 67 68 67 67 66 66 66 65 65 65 65 65 64 63 64 64 64 63 62 62 61 62 62 63
65 65 63 63 62 62 64 65 66 65 64 64 64 64 65 65 66 67 67 66 67 66 66 66 66 66 65 65 65 64 64 63 62 64 63 62 62 62 61 62 62 63
65 65 65 63 62 62 64 66 65 63 63 64 64 63 64 65 65 67 67 67 66 65 65 65 65 65 65 65 65 64 63 63 62 63 63 63 63 62 62 63 63 62
65 66 65 64 63 63 64 64 64 63 63 63 64 64 64 65 66 66 65 66 65 65 64 65 65 66 66 65 64 64 63 63 64 63 63 63 63 63 62 63 63 63
66 66 64 63 63 65 65 64 62 63 64 64 64 65 65 66 66 67 66 65 65 64 64 64 65 65 65 65 64 63 63 63 63 64 63 62 63 63 63 63 62 62
67 67 65 64 63 60 60 61 63 64 64 63 64 67 67 67 67 66 66 65 65 65 65 65 65 65 65 64 64 64 64 63 63 64 63 62 63 63 63 63 63 62
65 65 64 65 64 64 62 62 61 63 64 65 66 66 67 66 66 67 67 66 66 66 66 65 64 64 64 64 64 63 63 63 64 64 63 63 63 62 64 63 64 63
65 66 66 66 64 63 61 62 63 64 65 66 66 66 67 67 67 67 67 67 67 66 66 66 65 65 65 65 64 62 62 63 63 64 63 63 63 62 62 63 63 63
65 65 66 64 62 61 61 63 64 65 67 66 67 67 68 68 67 67 67 67 67 66 66 66 65 65 64 64 63 63 63 63 63 63 63 62 62 63 64 64 63 62
65 66 65 64 61 60 62 63 64 65 67 67 68 68 68 67 68 68 67 66 66 66 66 65 65 64 64 65 65 64 64 63 64 63 64 64 63 64 64 64 63 62
65 66 65 63 61 61 62 64 65 65 66 67 67 68 68 67 67 68 67 66 64 66 65 65 65 65 65 64 64 64 64 64 64 64 63 63 63 63 62 63 63 62
66 66 64 63 62 61 62 64 64 64 64 66 68 68 67 67 67 67 67 67 67 67 66 66 66 65 65 65 65 64 64 64 64 64 63 64 64 64 64 63 63 63
66 66 64 63 62 63 64 63 62 62 64 66 68 68 67 66 67 67 66 67 67 66 66 66 65 65 65 64 64 65 64 64 63 63 63 63 64 64 64 64 64 63
63 64 64 64 64 64 63 62 62 63 65 66 67 67 67 67 67 66 66 67 66 66 66 66 65 65 65 65 65 64 63 63 63 62 62 62 62 63 63 63 63 63
61 62 62 62 63 62 60 60 61 63 64 66 67 67 66 68 67 67 66 66 66 65 65 65 64 63 64 64 63 64 64 63 63 64 63 62 63 63 63 64 64 62
61 60 61 62 60 58 59 60 62 64 65 66 66 66 67 67 67 66 66 65 64 65 64 63 63 63 58 54 57 64 64 64 63 63 63 63 62 62 62 63 63 61
61 61 60 58 58 59 59 60 62 64 65 65 65 65 65 65 65 65 65 65 64 64 63 62 62 60 45 45 46 53 62 63 63 63 63 63 63 62 61 62 63 64
59 58 58 58 58 59 60 62 63 64 65 65 64 63 64 64 64 64 64 64 63 64 62 61 61 48 43 43 46 45 51 63 63 63 63 63 63 63 63 63 62 62
56 56 57 57 58 60 62 63 64 65 65 64 63 63 63 63 64 63 63 63 63 63 62 61 60 44 42 42 44 45 45 53 65 64 63 63 63 63 63 63 63 62
57 58 57 58 59 62 63 64 65 65 64 64 63 63 63 62 62 61 62 62 62 62 62 62 59 44 41 41 43 41 43 46 66 63 63 63 63 62 62 62 62 63
59 57 57 59 60 63 65 65 64 64 63 63 63 62 62 62 61 61 61 62 62 62 62 61 58 41 41 40 41 41 41 45 63 62 62 62 62 61 62 61 61 61
57 56 58 60 61 64 65 64 63 62 62 62 62 63 63 63 62 63 61 62 62 62 61 59 56 40 40 41 40 42 40 58 61 61 61 62 61 61 61 62 62 62
57 57 58 60 62 62 63 63 62 62 62 63 62 62 61 61 61 61 62 61 60 59 58 58 55 43 40 40 41 40 45 61 61 62 61 60 60 60 61 61 61 61
58 58 59 60 62 63 62 62 62 62 62 62 62 61 60 61 61 61 60 58 55 56 57 55 54 46 40 41 40 40 47 61 62 62 60 60 60 60 62 61 57 49
60 60 60 59 60 62 62 61 61 61 61 62 61 61 60 60 59 57 55 54 55 55 54 55 54 47 40 41 40 41 47 61 62 63 60 60 60 60 61 62 60 55
61 61 61 61 62 63 62 61 61 60 58 58 58 59 58 57 56 56 54 54 54 56 56 56 54 52 47 40 41 40 41 57 64 62 60 59 61 62 61 62 62 61
MSLP
1017.84 1018.24 1018.96 1019.48 1019.72 1020.00 1020.36 1020.52 1020.48 1020.56 1020.76 1020.80 1020.96 1021.16 1021.40 1021.48 1021.68 1021.88 1022.12 1022.28 1022.48 1022.64 1022.80 1022.92 1023.04 1023.20 1023.36 1023.48 1023.56 1023.64 1023.80 1024.00 1024.08 1024.20 1024.32 1024.36 1024.52 1024.64 1024.72 1024.76 1024.68 1024.60
1018.60 1018.84 1019.12 1019.40 1019.92 1020.24 1020.40 1020.40 1020.52 1020.56 1020.72 1020.92 1021.16 1021.36 1021.64 1021.88 1022.00 1022.04 1022.24 1022.52 1022.68 1022.88 1023.00 1023.12 1023.20 1023.32 1023.48 1023.64 1023.80 1023.88 1024.08 1024.28 1024.44 1024.52 1024.60 1024.68 1024.84 1024.96 1025.08 1025.08 1024.96 1024.88
1018.32 1018.84 1019.16 1019.48 1019.84 1020.20 1020.32 1020.48 1020.56 1020.68 1020.76 1021.00 1021.32 1021.60 1021.80 1021.92 1022.04 1022.20 1022.40 1022.60 1022.84 1023.08 1023.24 1023.32 1023.44 1023.56 1023.72 1023.88 1024.00 1024.12 1024.32 1024.52 1024.64 1024.72 1024.80 1024.96 1025.04 1025.12 1025.24 1025.20 1025.20 1025.16
1018.32 1018.56 1019.00 1019.36 1019.76 1020.08 1020.32 1020.44 1020.56 1020.68 1020.92 1021.16 1021.40 1021.72 1021.92 1022.00 1022.12 1022.36 1022.64 1022.80 1023.00 1023.24 1023.40 1023.48 1023.60 1023.72 1023.88 1024.04 1024.20 1024.36 1024.60 1024.68 1024.84 1024.96 1025.04 1025.12 1025.24 1025.32 1025.40 1025.36 1025.36 1025.28
1018.24 1018.64 1019.16 1019.48 1019.92 1020.00 1020.16 1020.36 1020.68 1020.72 1020.96 1021.24 1021.52 1021.72 1021.84 1021.96 1022.12 1022.40 1022.72 1022.96 1023.16 1023.36 1023.52 1023.68 1023.80 1023.96 1024.08 1024.24 1024.40 1024.60 1024.80 1024.92 1025.04 1025.04 1025.20 1025.36 1025.48 1025.48 1025.52 1025.48 1025.52 1025.52
1018.12 1018.52 1019.04 1019.32 1019.76 1020.00 1020.12 1020.36 1020.72 1020.84 1021.04 1021.36 1021.56 1021.56 1021.68 1021.88 1022.12 1022.44 1022.72 1022.96 1023.16 1023.36 1023.60 1023.72 1023.92 1024.04 1024.24 1024.40 1024.52 1024.68 1024.84 1024.96 1025.20 1025.28 1025.40 1025.52 1025.60 1025.64 1025.64 1025.64 1025.68 1025.68
1018.12 1018.56 1018.92 1019.28 1019.60 1019.88 1020.00 1020.48 1020.88 1020.96 1021.08 1021.24 1021.40 1021.60 1021.72 1022.00 1022.24 1022.48 1022.72 1022.96 1023.16 1023.40 1023.60 1023.84 1024.04 1024.24 1024.40 1024.52 1024.64 1024.84 1025.04 1025.20 1025.28 1025.36 1025.48 1025.60 1025.72 1025.84 1025.80 1025.76 1025.68 1025.68
1018.12 1018.40 1018.72 1019.04 1019.40 1019.80 1020.12 1020.60 1020.88 1020.96 1021.08 1021.20 1021.36 1021.64 1021.80 1022.04 1022.24 1022.52 1022.80 1022.96 1023.20 1023.44 1023.68 1023.88 1024.08 1024.32 1024.44 1024.56 1024.80 1025.08 1025.28 1025.36 1025.48 1025.52 1025.60 1025.72 1025.80 1025.96 1026.08 1025.96 1025.84 1025.72
1017.96 1018.32 1018.68 1019.04 1019.44 1019.84 1020.24 1020.56 1020.84 1020.96 1021.00 1021.04 1021.24 1021.56 1021.80 1021.96 1022.28 1022.60 1022.80 1023.08 1023.32 1023.52 1023.72 1023.96 1024.16 1024.36 1024.56 1024.72 1024.96 1025.16 1025.32 1025.52 1025.60 1025.68 1025.76 1025.88 1025.88 1025.92 1025.92 1025.96 1025.96 1025.92
1017.96 1018.32 1018.68 1019.04 1019.36 1019.76 1020.20 1020.52 1020.72 1020.84 1020.88 1020.96 1021.20 1021.48 1021.80 1022.12 1022.36 1022.60 1022.92 1023.16 1023.40 1023.60 1023.84 1024.04 1024.28 1024.52 1024.64 1024.80 1024.96 1025.20 1025.40 1025.56 1025.72 1025.80 1025.84 1025.88 1025.92 1025.96 1025.96 1025.92 1026.00 1026.04
1018.00 1018.32 1018.64 1018.88 1019.24 1019.72 1020.12 1020.36 1020.64 1020.84 1020.92 1021.04 1021.28 1021.52 1021.84 1022.16 1022.44 1022.68 1022.96 1023.20 1023.48 1023.64 1023.92 1024.16 1024.36 1024.52 1024.68 1024.92 1025.20 1025.36 1025.52 1025.68 1025.72 1025.84 1025.96 1026.04 1026.16 1026.20 1026.16 1026.08 1026.16 1026.16
1017.84 1018.20 1018.52 1018.76 1019.20 1019.72 1020.08 1020.32 1020.60 1020.88 1021.00 1021.16 1021.28 1021.60 1021.92 1022.16 1022.44 1022.68 1022.92 1023.20 1023.44 1023.68 1023.92 1024.16 1024.32 1024.56 1024.80 1025.04 1025.32 1025.52 1025.68 1025.80 1025.88 1026.04 1026.12 1026.16 1026.20 1026.20 1026.24 1026.28 1026.28 1026.24
1017.76 1018.16 1018.48 1018.84 1019.28 1019.64 1020.00 1020.40 1020.80 1020.96 1021.04 1021.20 1021.36 1021.64 1021.92 1022.20 1022.44 1022.72 1022.96 1023.16 1023.40 1023.72 1023.96 1024.16 1024.40 1024.64 1024.92 1025.24 1025.48 1025.68 1025.84 1026.00 1026.12 1026.24 1026.32 1026.32 1026.32 1026.32 1026.36 1026.36 1026.36 1026.36
1017.96 1018.28 1018.56 1018.92 1019.28 1019.68 1020.08 1020.52 1020.84 1021.04 1021.12 1021.28 1021.48 1021.72 1021.96 1022.16 1022.40 1022.72 1023.00 1023.20 1023.52 1023.76 1024.00 1024.24 1024.52 1024.84 1025.16 1025.40 1025.56 1025.80 1025.96 1026.12 1026.28 1026.40 1026.48 1026.52 1026.48 1026.48 1026.52 1026.48 1026.48 1026.48
1018.08 1018.52 1018.84 1019.20 1019.48 1019.80 1020.32 1020.76 1020.92 1021.08 1021.24 1021.36 1021.56 1021.80 1022.00 1022.20 1022.44 1022.72 1023.04 1023.28 1023.56 1023.80 1024.12 1024.44 1024.72 1025.04 1025.28 1025.48 1025.68 1025.88 1026.04 1026.20 1026.28 1026.36 1026.44 1026.48 1026.48 1026.52 1026.48 1026.52 1026.60 1026.76
1018.20 1018.80 1019.04 1019.32 1019.80 1020.20 1020.56 1020.80 1021.00 1021.12 1021.20 1021.40 1021.64 1021.88 1022.08 1022.32 1022.56 1022.80 1023.08 1023.36 1023.60 1023.92 1024.28 1024.60 1024.92 1025.20 1025.68 1025.88 1025.84 1025.84 1026.00 1026.16 1026.32 1026.40 1026.36 1026.36 1026.44 1026.52 1026.60 1026.60 1026.72 1027.00
1018.24 1018.76 1019.20 1019.60 1019.92 1020.32 1020.60 1020.80 1020.96 1021.08 1021.20 1021.40 1021.68 1021.96 1022.20 1022.44 1022.64 1022.88 1023.12 1023.36 1023.64 1023.96 1024.40 1024.72 1025.08 1025.64 1026.24 1026.32 1026.28 1026.20 1026.08 1026.20 1026.24 1026.32 1026.32 1026.36 1026.40 1026.44 1026.56 1026.64 1026.64 1026.72
1018.36 1018.92 1019.36 1019.68 1020.00 1020.36 1020.56 1020.68 1020.84 1020.96 1021.16 1021.44 1021.76 1022.08 1022.28 1022.48 1022.72 1022.88 1023.12 1023.40 1023.64 1024.00 1024.44 1024.76 1025.20 1026.12 1026.44 1026.56 1026.56 1026.60 1026.44 1026.16 1026.20 1026.28 1026.32 1026.32 1026.32 1026.32 1026.36 1026.52 1026.72 1026.84
1018.60 1019.12 1019.48 1019.80 1020.12 1020.24 1020.40 1020.56 1020.68 1020.80 1021.12 1021.48 1021.80 1022.04 1022.32 1022.56 1022.72 1023.04 1023.36 1023.60 1023.84 1024.12 1024.44 1024.76 1025.36 1026.36 1026.56 1026.68 1026.80 1026.80 1026.68 1026.36 1026.04 1026.24 1026.24 1026.28 1026.36 1026.36 1026.36 1026.44 1026.52 1026.72
1018.64 1019.00 1019.40 1019.76 1020.00 1020.04 1020.16 1020.32 1020.48 1020.76 1021.12 1021.44 1021.76 1022.08 1022.36 1022.60 1022.92 1023.28 1023.56 1023.84 1024.04 1024.28 1024.52 1024.84 1025.44 1026.48 1026.68 1026.84 1026.88 1026.92 1026.76 1026.56 1025.96 1026.28 1026.32 1026.40 1026.52 1026.56 1026.56 1026.64 1026.64 1026.56
1018.52 1019.00 1019.36 1019.64 1019.76 1019.84 1019.96 1020.12 1020.40 1020.80 1021.12 1021.40 1021.76 1022.04 1022.32 1022.64 1023.00 1023.32 1023.60 1023.84 1024.12 1024.40 1024.60 1024.96 1025.64 1026.56 1026.84 1026.96 1027.04 1027.00 1026.80 1026.52 1026.12 1026.36 1026.40 1026.56 1026.68 1026.80 1026.76 1026.88 1026.96 1027.00
1018.36 1018.96 1019.32 1019.44 1019.52 1019.56 1019.64 1019.96 1020.36 1020.80 1021.12 1021.44 1021.72 1021.96 1022.28 1022.56 1022.88 1023.24 1023.68 1023.96 1024.28 1024.60 1025.04 1025.40 1026.12 1026.76 1026.96 1027.12 1027.16 1027.08 1026.88 1026.32 1026.20 1026.32 1026.40 1026.56 1026.76 1026.88 1026.84 1026.84 1026.96 1027.00
1018.36 1018.80 1019.04 1019.04 1019.08 1019.28 1019.52 1019.92 1020.40 1020.76 1021.08 1021.32 1021.64 1021.88 1022.20 1022.48 1022.80 1023.24 1023.64 1024.00 1024.40 1024.92 1025.44 1025.72 1026.44 1027.04 1027.04 1027.20 1027.16 1027.04 1026.80 1026.08 1026.16 1026.08 1026.36 1026.60 1026.80 1026.92 1026.84 1027.00 1027.08 1027.12
1018.04 1018.48 1018.72 1018.80 1018.92 1019.12 1019.44 1019.84 1020.16 1020.48 1020.88 1021.16 1021.36 1021.72 1022.12 1022.44 1022.80 1023.16 1023.64 1024.24 1024.80 1025.08 1025.32 1025.84 1026.32 1026.96 1027.08 1027.16 1027.16 1027.00 1026.64 1026.00 1025.96 1025.92 1026.36 1026.56 1026.76 1026.88 1026.68 1026.96 1027.52 1027.84
1017.52 1017.88 1018.24 1018.56 1018.72 1018.84 1019.12 1019.60 1020.00 1020.36 1020.72 1021.08 1021.40 1021.84 1022.20 1022.52 1023.00 1023.56 1024.20 1024.72 1024.92 1025.20 1025.48 1025.80 1026.20 1026.84 1027.16 1027.12 1027.16 1027.00 1026.80 1026.08 1025.76 1025.76 1026.20 1026.32 1026.44 1026.76 1026.76 1026.76 1027.28 1027.72
1017.72 1018.12 1018.40 1018.60 1018.68 1018.84 1019.20 1019.56 1020.00 1020.44 1020.92 1021.28 1021.64 1021.84 1022.36 1022.92 1023.44 1023.72 1024.24 1024.64 1024.84 1024.88 1025.20 1025.60 1026.00 1026.56 1027.00 1027.08 1027.12 1027.04 1026.88 1026.24 1025.56 1025.72 1026.00 1026.28 1026.24 1026.20 1026.52 1026.52 1026.72 1027.16
Wind_Speed
11 8 11 11 7 6 7 7 6 7 6 6 7 7 7 7 7 8 8 8 8 8 8 8 7 7 7 8 7 7 8 8 8 8 9 8 9 9 9 9 9 7
10 10 7 9 7 6 6 6 7 7 8 7 7 7 7 8 8 8 8 9 8 8 8 7 7 8 8 7 8 8 8 8 9 7 9 10 9 9 9 9 8 8
12 13 12 12 9 9 9 8 7 7 7 8 8 7 7 7 8 8 8 8 8 8 7 7 8 8 8 8 8 8 8 8 8 8 8 9 8 8 8 7 7 8
12 12 12 12 10 10 9 8 7 8 8 8 8 8 7 7 9 9 8 9 8 8 7 7 8 8 8 9 9 8 8 8 8 8 8 7 7 7 7 7 7 6
14 12 9 9 8 10 9 9 8 8 9 9 9 9 9 9 9 9 8 8 8 8 7 8 8 8 8 8 8 8 8 8 7 7 7 7 6 6 6 6 6 6
13 13 12 12 11 8 9 9 9 9 10 10 9 8 9 10 9 9 9 9 8 8 8 8 8 8 9 9 8 8 7 7 7 8 8 7 7 6 5 6 7 7
14 14 13 12 12 11 11 9 8 9 9 9 9 9 9 10 9 9 9 9 9 8 8 8 9 9 8 8 8 8 8 8 8 8 8 7 7 7 6 6 6 7
16 13 12 12 12 11 11 9 9 9 9 10 10 10 9 10 10 9 9 9 8 9 9 9 10 10 9 8 9 9 8 6 7 8 8 8 7 7 6 4 5 7
14 12 12 14 13 10 11 10 9 9 9 10 10 10 9 9 10 9 9 9 9 9 9 10 10 10 9 9 9 9 9 8 7 8 8 7 7 7 7 6 6 6
12 12 14 13 13 10 12 11 10 9 9 10 10 10 10 9 10 10 9 9 9 9 10 10 10 9 10 10 10 9 9 9 8 7 7 7 7 6 6 6 6 5
15 13 13 13 12 11 12 11 11 9 8 10 10 10 10 10 9 9 9 9 8 10 10 10 11 11 10 10 9 8 9 8 8 7 7 7 6 6 6 6 6 6
16 13 13 13 13 12 12 11 10 9 10 9 10 11 11 10 10 9 8 9 9 10 10 11 11 10 10 10 9 8 8 7 8 7 7 7 6 6 6 5 5 6
15 13 12 12 12 12 11 10 9 9 10 10 10 11 11 10 10 9 8 9 10 10 11 11 11 10 10 9 9 8 8 8 7 7 7 6 6 6 5 5 5 5
11 10 11 10 11 11 10 10 9 9 9 9 10 11 10 10 10 10 9 9 10 10 10 10 10 10 9 9 8 8 8 8 7 7 7 6 6 6 5 5 6 6
10 8 8 10 10 11 10 10 9 9 9 9 9 9 8 10 10 10 10 10 10 10 11 10 9 9 8 8 8 8 8 8 8 7 7 7 7 6 6 6 6 6
10 8 9 10 10 10 10 10 9 9 10 10 10 10 10 9 10 10 10 10 11 11 10 9 8 7 6 6 6 8 8 6 6 7 6 6 6 6 6 6 7 7
11 10 10 10 10 10 10 10 10 9 10 10 10 10 10 10 9 10 10 10 11 11 11 9 7 6 8 6 5 4 7 7 6 6 6 6 6 6 6 6 6 6
10 10 10 10 10 10 11 11 10 11 10 10 10 11 10 9 10 10 10 10 10 11 10 9 8 10 8 6 4 3 4 5 6 6 5 5 5 5 5 6 6 5
11 11 10 10 10 11 11 11 11 11 11 11 11 10 10 10 10 10 10 10 10 11 11 10 9 10 8 7 3 1 4 4 6 5 5 5 5 5 5 4 5 5
11 11 11 11 11 11 11 12 12 11 11 10 10 10 10 10 10 10 10 10 10 11 10 10 11 10 9 7 5 3 3 7 7 4 5 5 5 5 4 4 3 3
12 11 11 11 11 11 12 12 12 11 11 10 10 11 11 10 10 11 10 10 10 10 9 10 9 12 9 8 6 5 5 7 6 4 5 5 4 4 4 4 4 3
13 12 11 11 12 12 13 13 12 11 11 10 10 10 10 10 10 9 10 10 10 9 8 9 9 12 9 9 7 7 7 4 6 5 5 5 4 4 4 3 3 2
12 12 12 13 13 13 13 12 12 12 11 10 11 11 11 11 10 10 10 10 10 9 9 8 9 9 10 9 9 9 7 4 6 5 5 5 4 4 3 3 2 2
14 13 13 13 13 14 13 12 12 11 11 11 12 12 12 11 11 11 10 10 9 9 7 8 9 9 11 10 9 11 9 4 5 5 5 5 5 3 3 3 5 6
14 15 15 14 14 14 13 14 13 12 11 11 10 11 11 10 10 10 10 10 10 11 12 10 9 9 11 11 10 10 8 5 5 5 5 5 5 4 3 4 5 5
11 12 12 13 14 13 12 12 11 10 11 10 9 9 9 8 8 9 11 10 10 11 10 10 10 9 10 11 10 9 10 6 4 4 5 5 4 5 5 4 4 5
Wind_Direction
156 143 147 146 138 138 140 149 144 130 123 118 114 117 116 125 128 123 113 111 108 104 100 99 96 93 93 91 91 92 86 84 83 81 82 81 79 78 75 73 71 72
137 141 130 134 122 131 144 142 135 128 118 112 113 115 118 126 126 122 119 117 112 106 105 102 100 101 101 99 97 96 94 92 92 92 92 89 88 83 79 78 76 75
149 148 146 145 145 147 147 142 130 115 115 116 119 117 124 128 123 120 122 118 112 109 105 101 100 102 103 103 102 98 99 100 97 94 91 87 85 85 85 81 77 74
153 155 151 146 142 143 145 135 124 118 117 123 125 128 130 129 126 123 121 120 115 113 108 105 107 108 106 104 104 101 103 100 98 101 99 94 88 86 84 80 78 77
156 155 140 134 138 144 138 125 122 125 130 128 131 139 138 135 134 131 129 124 122 118 114 111 110 110 111 108 108 108 106 106 107 105 101 98 94 91 87 85 85 83
154 156 149 141 141 136 124 126 133 136 136 137 144 143 139 137 135 137 135 132 128 123 119 118 118 116 115 117 115 112 113 109 108 110 106 102 101 93 92 91 89 82
154 153 144 146 142 140 127 127 136 142 139 144 142 139 138 139 139 140 138 133 130 128 125 125 124 123 122 121 119 115 110 111 114 111 106 103 103 102 99 95 88 85
153 150 145 147 138 131 125 135 144 146 146 145 138 138 143 141 142 138 138 136 131 129 129 130 130 127 128 124 120 119 116 116 117 114 109 105 103 101 100 95 85 82
152 148 148 142 133 129 134 145 147 147 150 143 138 140 142 142 139 141 139 136 133 132 132 133 132 129 128 126 124 124 123 121 120 117 114 117 116 110 105 100 93 85
149 149 148 144 134 132 143 150 147 147 148 138 137 141 142 140 142 141 139 138 135 133 135 136 133 131 131 130 128 125 127 125 123 121 119 116 112 110 104 97 92 89
159 155 151 142 131 138 146 149 146 145 141 137 141 141 141 143 144 141 141 138 139 141 140 138 138 136 132 129 128 129 127 128 125 118 115 108 102 99 96 94 89 78
163 155 148 137 136 143 147 144 145 143 138 142 145 143 144 146 145 145 143 142 143 143 142 141 139 135 134 134 132 132 130 126 123 122 118 115 113 105 99 93 87 77
161 156 143 138 142 144 143 141 141 138 141 146 147 146 148 148 147 143 144 144 143 142 144 141 138 137 135 135 137 136 133 130 128 125 121 115 110 105 98 93 84 76
139 136 138 140 142 137 134 137 138 141 143 144 146 150 151 151 148 145 143 143 142 144 140 139 137 137 139 142 141 138 136 134 131 130 126 122 116 111 107 97 85 76
129 129 130 131 130 131 131 135 140 143 147 146 150 150 152 150 147 145 145 143 143 142 141 140 142 140 145 147 144 143 140 139 139 135 133 127 124 117 109 99 87 78
128 125 132 130 127 127 133 138 144 151 152 150 152 152 152 151 148 147 145 145 144 144 143 144 143 146 103 116 144 147 147 140 138 140 138 131 122 117 107 101 99 93
131 134 131 130 132 135 140 146 150 152 153 152 152 153 153 152 152 148 149 149 149 148 147 148 147 118 89 70 57 126 146 146 146 137 134 133 132 123 117 114 108 105
128 129 133 134 138 142 149 154 154 156 155 154 153 154 154 154 154 152 149 151 152 152 152 153 141 115 114 101 88 6 312 153 142 138 136 132 128 125 119 112 106 99
130 138 140 141 146 152 156 158 159 158 156 156 157 157 156 158 156 151 152 154 157 157 156 153 140 133 130 133 112 254 311 278 139 139 139 124 120 113 111 111 112 108
142 146 145 149 154 158 160 161 161 161 158 158 156 158 160 157 153 153 155 158 161 160 159 154 149 141 145 145 151 213 281 288 132 140 123 124 119 114 111 105 102 108
148 146 146 152 160 162 163 163 162 158 160 159 160 162 162 159 157 159 161 161 162 163 162 157 144 142 151 154 168 200 246 275 127 142 136 123 117 106 103 100 98 92
143 144 152 158 163 165 166 164 162 161 161 159 161 162 161 160 159 159 159 161 161 160 157 157 139 150 151 164 175 199 235 217 142 148 138 136 131 130 130 120 106 96
149 153 159 166 167 165 166 163 160 162 160 162 163 164 165 163 159 157 156 155 152 153 161 165 150 161 160 174 182 201 226 192 154 154 139 144 145 143 138 119 101 55
157 158 162 166 164 167 165 163 162 160 161 165 167 163 161 159 156 155 150 143 147 155 161 157 162 167 172 178 188 205 235 185 168 151 146 149 149 168 145 124 77 42
161 162 165 166 169 170 166 163 163 162 162 165 163 158 154 152 147 139 139 148 163 159 172 169 168 170 180 180 192 209 233 211 178 151 160 157 159 158 173 144 134 116
162 164 167 169 172 166 161 159 155 154 156 157 153 153 143 138 140 148 156 166 169 172 164 172 170 174 183 184 190 207 236 264 183 162 164 162 178 164 167 163 154 143